475  
ASUS45 KBOI 222010  
RWRID  
 
IDAHO REGIONAL WEATHER ROUNDUP  
NATIONAL WEATHER SERVICE BOISE ID  
200 PM MDT MON JUL 22 2019  
 
NOTE: "FAIR" INDICATES FEW OR NO CLOUDS BELOW 12000 FEET  
WITH NO SIGNIFICANT WEATHER AND/OR S TO VISIBILITY
 
 
IDZ012-014-222100-  
SOUTHWEST IDAHO  
 
 
CITY SKY/WX TMP DP RH WIND PRES REMARKS
 
BOISE MOSUNNY 95 49 20 W7 29.98S HX 92  
CALDWELL MOSUNNY 94 51 23 N5 29.96F HX 91  
MOUNTAIN HOME MOSUNNY 97 40 13 N5 29.98S HX 93  

 
 
IDZ016-017-222100-  
SOUTHCENTRAL IDAHO  
 
 
CITY SKY/WX TMP DP RH WIND PRES REMARKS
 
BURLEY SUNNY 95 43 16 VRB6 30.06F HX 91  
JEROME MOSUNNY 95 47 19 VRB6 30.07S HX 91  
TWIN FALLS MOSUNNY 96 47 18 N8 30.07S HX 92  

 
 
IDZ019>023-222100-  
SOUTHEAST IDAHO  
 
 
CITY SKY/WX TMP DP RH WIND PRES REMARKS
 
IDAHO FALLS SUNNY 88 61 40 N5 30.15F  
POCATELLO MOSUNNY 99 44 15 NE10 30.10F HX 95  
REXBURG SUNNY 92 52 25 SW8 30.16F  

 
 
IDZ006-010-011-018-031-032-222100-  
CENTRAL IDAHO MOUNTAINS  
 
 
CITY SKY/WX TMP DP RH WIND PRES REMARKS
 
MCCALL PTSUNNY 81 48 31 W5 30.14F  
HAILEY SUNNY 90 52 27 SE9 30.18F  
STANLEY N/A 84 38 19 VRB3 30.25F  
SALMON CLOUDY 84 45 25 VRB3 30.11F  
CHALLIS PTSUNNY 87 43 21 VRB3 30.16F  

 
 
IDZ002-004-006-007-026-222100-  
NORTHERN IDAHO  
 
 
CITY SKY/WX TMP DP RH WIND PRES REMARKS
 
LEWISTON PTSUNNY 88 47 24 W5 29.91F  
LOWELL N/A 75 57 53 CALM 29.98F  
COEUR D'ALENE CLOUDY 78 53 41 N17 30.01F  
MULLAN PASS CLOUDY 70 47 43 VRB5 30.25F  

 
 
 
CLICK HERE TO GO TO PREVIOUS BULLETINS.

The Nexlab ID Page Main Text Page